Regional Weather Roundup
Issued by NWS

Home | Current Version | Previous Version | Text Only | Print | Product List | Glossary On
Versions: 1 2 3 4 5 6 7 8 9 10 11 12 13 14 15 16 17 18 19 20 21 22 23 24 25 26 27 28 29 30 31 32 33 34 35 36 37 38 39 40 41 42 43 44 45 46 47 48 49 50
000
ASUS43 KMPX 242010
RWRMN
WEATHER ROUNDUP FOR MINNESOTA
NATIONAL WEATHER SERVICE TWIN CITIES/CHANHASSEN MN
300 PM CDT SUN SEP 24 2017


NOTE: "FAIR" INDICATES FEW OR NO CLOUDS BELOW 12,000 FEET WITH NO
SIGNIFICANT WEATHER AND/OR OBSTRUCTIONS TO VISIBILITY. N/A MEANS
CURRENT SKY AND/OR WEATHER CONDITIONS ARE NOT AVAILABLE.

MNZ060>063-068>070-242100-
   Twin Cities Metro

CITY           SKY/WX    TMP DP  RH WIND       PRES   REMARKS
TWIN CITIES    PTSUNNY   89  63  41 S15G24    29.87F HX  90
ST PAUL        SUNNY     89  64  43 SE18G24   29.87F HX  90
CRYSTAL        PTSUNNY   86  64  47 S18G28    29.86F
BLAINE         PTSUNNY   88  64  45 S13G22    29.87F
LAKEVILLE      MOSUNNY   88  64  45 S9G16     29.89F
EDEN PRAIRIE   LGT RAIN  83  66  56 SW16G23   29.87F
SOUTH ST PAUL  SUNNY     90  60  36 S12G20    29.88F
LAKE ELMO      FAIR      88  63  42 S17       29.90F
$$
MNZ001>005-007-008-013>017-022>024-027-028-242100-
   Northwest Minnesota

CITY           SKY/WX    TMP DP  RH WIND       PRES   REMARKS
BEMIDJI        CLOUDY    70  66  86 W6        29.81F
HALLOCK        LGT RAIN  54  52  94 N12G17    29.87F
ROSEAU         LGT RAIN  55  52  88 N7        29.83R
THIEF RVR FALL LGT RAIN  57  55  93 NW9       29.84F
CROOKSTON      RAIN      55  54  94 N16       29.85S
FOSSTON        LGT RAIN  61  59  94 W8        29.84S
DETROIT LAKES  CLOUDY    66  63  88 SW8       29.84F
MOORHEAD       DRIZZLE   55  54  94 NW10      29.87R
PARK RAPIDS    CLOUDY    74  66  76 SW14      29.83S
MAHNOMEN       CLOUDY    60  59  97 W9        29.84S
$$
MNZ006-009>011-018-025>026-242100-
   North Central Minnesota

CITY           SKY/WX    TMP DP  RH WIND       PRES   REMARKS
BAUDETTE       CLOUDY    62  62 100 CALM      29.81S
FLAG ISLAND    DRIZZLE   57  55  94 N7        29.80F
INTL FALLS     CLOUDY    71  65  81 W6        29.81F
WASKISH        CLOUDY    70  66  88 SW6       29.81S
BIG FORK       MOSUNNY   79  66  65 S13G18    29.82F
LONGVILLE      PTSUNNY   79  68  69 S10G20    29.82F
GRAND RAPIDS   CLOUDY    80  69  69 S12       29.86F
CRANE LAKE     MOSUNNY   79  66  65 S10G16    29.84S
ORR            PTSUNNY   79  64  61 S14G21      N/A
WALKER         CLOUDY    76  68  76 S7        29.81F
$$
MNZ012-019>021-037-242100-
   Northeast Minnesota

CITY           SKY/WX    TMP DP  RH WIND       PRES   REMARKS
DULUTH         MOSUNNY   79  69  71 S9        29.90F
ELY            MOSUNNY   81  64  57 S9G18     29.88S
HIBBING        PTSUNNY   79  65  62 SW8       29.85F
EVELETH        MOSUNNY   81  53  37 S15       29.87F
DULUTH HARBOR  MOSUNNY   64  63  94 NE8       29.90F
GRAND MARAIS     N/A     64  62  93 E5        29.90F
$$
MNZ029>031-032-039>041-046>048-054>057-064-242100-
   West Central Minnesota

CITY           SKY/WX    TMP DP  RH WIND       PRES   REMARKS
FERGUS FALLS   CLOUDY    66  66 100 W13G20    29.85R
WHEATON        DRIZZLE   64  61  88 W6        29.87S
ALEXANDRIA     CLOUDY    74  69  85 W7        29.85F
ELBOW LAKE     CLOUDY    69  64  85 NW10      29.84S HAZE
WADENA         HVY RAIN  73  66  78 SW7       29.83S
GLENWOOD       CLOUDY    77  68  73 W10G18    29.84S
APPLETON       MOSUNNY   77  66  69 W12G18    29.82R
BENSON         CLOUDY    82  68  61 W10       29.83F
ORTONVILLE     LGT RAIN  68  63  83 W8        29.87R
MADISON        CLOUDY    75  66  73 W17G29    29.84R
WILLMAR        FAIR      79  64  61 SW10      29.84S
$$
MNZ033>034-036-042>043-049>051-058-059-242100-
   Central Minnesota

CITY           SKY/WX    TMP DP  RH WIND       PRES   REMARKS
ST CLOUD       MOSUNNY   85  68  56 S15G26    29.84F
SAUK CENTRE    LGT RAIN  69  64  83 S12G22    29.84S
PAYNESVILLE    PTSUNNY   85  66  52 S15G26    29.83F
AITKIN         PTSUNNY   81  66  61 S14       29.84F
PINE RIVER     CLOUDY    77  66  69 S9        29.85F
BRAINERD       PTSUNNY   81  67  62 S14G23    29.83F
STAPLES        CLOUDY    79  66  65 S6        29.82F
LITTLE FALLS   PTSUNNY   82  59  44 S15       29.83F
LITCHFIELD     MOSUNNY   86  66  51 S8        29.83F
BUFFALO        MOSUNNY   86  62  44 S8G16     29.86F
MAPLE LAKE     PTSUNNY   84  67  55 S6        29.87F
HUTCHINSON     CLOUDY    85  68  57 S6        29.86F
$$
MNZ037-044-045-052-053-242100-
   East Central Minnesota

CITY           SKY/WX    TMP DP  RH WIND       PRES   REMARKS
PRINCETON      RAIN      84  68  58 S14G20    29.88R
MORA           MOSUNNY   86  64  48 S14G21    29.88F
RUSH CITY      MOSUNNY   85  64  49 S9        29.88F
MOOSE LAKE     MOSUNNY   82  64  54 S9G18     29.86S
HINCKLEY       MOCLDY    86  68  54 S10G16    29.88F
CLOQUET        MOSUNNY   82  63  51 S7        29.89S
MCGREGOR       CLOUDY    81  64  57 S16G23    29.87S
$$
MNZ071>073-080-081-089-090-097-098-242100-
   Southwest Minnesota

CITY           SKY/WX    TMP DP  RH WIND       PRES   REMARKS
MONTEVIDEO     CLOUDY    84  66  54 SW13G18   29.81F
GRANITE FALLS  CLOUDY    83  69  62 S14       29.83F
CANBY          CLOUDY    72  64  77 W18G26    29.87R
MARSHALL       PTSUNNY   84  68  58 SW15      29.82F
REDWOOD FALLS  MOSUNNY   89  62  40 S24G30    29.82F
OLIVIA         MOSUNNY   82  61  47 S17G26    29.82F
PIPESTONE      LGT RAIN  70  64  83 W14       29.90R
WORTHINGTON    PTSUNNY   80  64  58 S10G26    29.88F
JACKSON        MOSUNNY   86  61  42 S18G28    29.89F
TRACY          MOSUNNY   87  65  47 SW23      29.84F
SLAYTON        MOSUNNY   84  59  42 S20G28    29.87F
$$
MNZ065>067-074>077-082>085-091>093-242100-
   South Central Minnesota

CITY           SKY/WX    TMP DP  RH WIND       PRES   REMARKS
NEW ULM        MOSUNNY   86  61  42 S15G24    29.85F
ST JAMES       MOSUNNY   88  61  40 SE15      29.87F
FAIRMONT       MOSUNNY   88  62  41 S15       29.89F
FARIBAULT      MOSUNNY   88  64  45 S13       29.91F
OWATONNA       MOSUNNY   88  61  40 S16G23    29.92F
WASECA         MOSUNNY   88  59  37 S14G20    29.91F
ALBERT LEA     SUNNY     91  63  38 S5        29.92F HX  92
$$
MNZ078>079-086>088-094>096-242100-
   Southeast Minnesota

CITY           SKY/WX    TMP DP  RH WIND       PRES   REMARKS
ROCHESTER      MOSUNNY   89  62  40 S14       29.95F
RED WING       SUNNY     91  55  29 S13G21    29.90F
STANTON        MOSUNNY   89  60  36 S14G20    29.89F
DODGE CENTER   SUNNY     88  55  33 S15G21    29.94F
WINONA         MOSUNNY   90  57  33 SW8       29.94S
AUSTIN           N/A     84 N/A N/A S12       29.94S
PRESTON        MOSUNNY   87  59  38 SW13G18   29.97S
$$
ABBREVIATIONS USED IN REMARKS
   TC - TEMPERATURES IN CELSIUS
  WCI - WIND CHILL INDEX
   HX - HEAT INDEX
  VSB - VISIBILITY
$$




USA.gov is the U.S. government's official web portal to all federal, state and local government web resources and services.